Simultaneous Nadir Overpasses (SNOs) Predictions

Prediction of SNOs between LANDSAT-8 and METOP-A Satellite Orbit:

Table of predicted SNOs for the next 14.0 days since TLE Epoch: 1/30/2021
Index Date (LANDSAT-8) Time (LANDSAT-8) Lat,Lon (LANDSAT-8) SZA (LANDSAT-8 ) Date (METOP-A) Time (METOP-A) Lat,Lon (METOP-A) SZA (METOP-A ) Distance(km) Time Diff (sec)
1 01/30/2021 03:55:00 81.43, 166.40 101.11 01/30/2021 03:54:11 81.43, 166.55 101.10 2.43 49
2 01/30/2021 04:44:27 -81.42, -26.08 78.92 01/30/2021 04:44:52 -81.43, -26.19 78.92 1.89 25
3 02/01/2021 23:29:15 81.43,-127.22 100.30 02/01/2021 23:28:34 81.43,-127.35 100.28 2.22 41
4 02/02/2021 00:18:42 -81.42, 40.32 79.73 02/02/2021 00:19:14 -81.42, 40.33 79.71 0.05 32
5 02/04/2021 19:03:30 81.42, -60.87 99.45 02/04/2021 19:02:56 81.43, -60.86 99.45 0.61 34
6 02/04/2021 19:52:57 -81.42, 106.69 80.57 02/04/2021 19:53:36 -81.42, 106.82 80.54 2.17 39
7 02/07/2021 14:37:44 81.42, 5.43 98.57 02/07/2021 14:37:17 81.43, 5.60 98.58 2.90 27
8 02/07/2021 15:27:11 -81.41, 173.02 81.46 02/07/2021 15:27:58 -81.43, 172.91 81.44 2.28 47
9 02/10/2021 10:11:58 81.43, 72.09 97.69 02/10/2021 10:11:39 81.42, 72.04 97.68 0.97 19



Historial Predications of SNOs between LANDSAT-8 and METOP-A
